WetterOnline ( https://www.wetteronline.de )

Wetter aktuell Memmingen

Aktuelles Wetter: Leutkirch-Herlazhofen (671m)

6-stündlich | Neueste Meldungen
Ortszeit Temperatur Wetter
Sa, 02.03. 19:00 9.0° C wolkig
Sa, 02.03. 13:00 10.7° C bedeckt
Sa, 02.03. 7:00 2.6° C bedeckt
Sa, 02.03. 1:00 2.4° C bedeckt
Fr, 01.03. 19:00 5.0° C leichter Regen
Fr, 01.03. 13:00 5.4° C leichter Regen
Fr, 01.03. 7:00 4.7° C Sprühregen
Fr, 01.03. 1:00 -0.1° C bewölkt
Ortszeit Temperatur Wetter
Sa, 02.03. 21:00 2.9° C leicht bewölkt
Sa, 02.03. 20:50 2.9° C leicht bewölkt
Sa, 02.03. 20:40 3.3° C leicht bewölkt
Sa, 02.03. 20:30 3.5° C wolkenlos
Sa, 02.03. 20:20 3.5° C wolkenlos
Sa, 02.03. 20:10 4.2° C wolkenlos
Sa, 02.03. 20:00 5.2° C leicht bewölkt
Sa, 02.03. 19:30 8.4° C wolkig
Sa, 02.03. 19:00 9.0° C wolkig
Sa, 02.03. 18:30 9.0° C bedeckt
Sa, 02.03. 18:00 10.1° C bewölkt
Ortszeit Relative Feuchte Sichtweite
Sa, 02.03. 19:00 79% 50 km
Sa, 02.03. 13:00 59% >70 km
Sa, 02.03. 7:00 99% 25 km
Sa, 02.03. 1:00 97% 20 km
Fr, 01.03. 19:00 97% 12 km
Fr, 01.03. 13:00 89% 30 km
Fr, 01.03. 7:00 94% 5.0 km
Fr, 01.03. 1:00 99% 3.3 km
Ortszeit Relative Feuchte Sichtweite
Sa, 02.03. 21:00 97% 14 km
Sa, 02.03. 20:50 97% -
Sa, 02.03. 20:40 95% -
Sa, 02.03. 20:30 94% 21 km
Sa, 02.03. 20:20 94% -
Sa, 02.03. 20:10 89% -
Sa, 02.03. 20:00 88% 30 km
Sa, 02.03. 19:30 80% 45 km
Sa, 02.03. 19:00 79% 50 km
Sa, 02.03. 18:30 79% 55 km
Sa, 02.03. 18:00 72% >70 km
Ortszeit Niederschlagsmenge Niederschlagsart
Sa, 02.03. 19:00 0.1 l/m2 in 12 Std. Regen
Sa, 02.03. 13:00 0.0 l/m2 in 6 Std. -
Sa, 02.03. 7:00 0.4 l/m2 in 12 Std. Regen
Sa, 02.03. 1:00 0.4 l/m2 in 6 Std. Regen
Fr, 01.03. 19:00 4 l/m2 in 12 Std. Regen
Fr, 01.03. 13:00 3 l/m2 in 6 Std. Regen
Fr, 01.03. 7:00 0.1 l/m2 in 12 Std. Regen
Fr, 01.03. 1:00 0.0 l/m2 in 6 Std. -
Ortszeit Niederschlagsmenge Niederschlagsart
Sa, 02.03. 21:00 0.0 l/m2 in 1 Std. -
Sa, 02.03. 20:50 keine Meldung -
Sa, 02.03. 20:40 keine Meldung -
Sa, 02.03. 20:30 0.0 l/m2 in 30 Min -
Sa, 02.03. 20:20 keine Meldung -
Sa, 02.03. 20:10 keine Meldung -
Sa, 02.03. 20:00 0.0 l/m2 in 1 Std. -
Sa, 02.03. 19:30 0.0 l/m2 in 30 Min -
Sa, 02.03. 19:00 0.0 l/m2 in 1 Std. Regen
Sa, 02.03. 18:30 0.0 l/m2 in 30 Min -
Sa, 02.03. 18:00 0.0 l/m2 in 1 Std. -
Ortszeit Stärke Spitze Richtung
km/h Bft. km/h Grad Sektor
Sa, 02.03. 19:00 6 1 24 360° N
Sa, 02.03. 13:00 13 3 24 70° O
Sa, 02.03. 7:00 0 0 11 - -
Sa, 02.03. 1:00 2 1 11 10° N
Fr, 01.03. 19:00 4 1 18 150° SO
Fr, 01.03. 13:00 11 2 25 220° SW
Fr, 01.03. 7:00 7 2 18 190° S
Fr, 01.03. 1:00 2 1 11 130° SO
Ortszeit Stärke Spitze Richtung
km/h Bft. km/h Grad Sektor
Sa, 02.03. 21:00 4 1 11 150° SO
Sa, 02.03. 20:50 4 1 - 150° SO
Sa, 02.03. 20:40 4 1 - 140° SO
Sa, 02.03. 20:30 4 1 11 170° S
Sa, 02.03. 20:20 4 1 - 170° S
Sa, 02.03. 20:10 4 1 - 100° O
Sa, 02.03. 20:00 7 2 11 20° N
Sa, 02.03. 19:30 6 1 9 20° N
Sa, 02.03. 19:00 6 1 11 360° N
Sa, 02.03. 18:30 6 1 7 340° N
Sa, 02.03. 18:00 4 1 22 60° NO
Ortszeit Untergrenze Bedeckung Gattung
total tief tief mittel hoch
Sa, 02.03. 19:00 7200 m 8/8 0/8 - - -
Sa, 02.03. 13:00 2700 m 8/8 8/8 - - -
Sa, 02.03. 7:00 2100 m 8/8 8/8 - - -
Sa, 02.03. 1:00 2700 m 8/8 8/8 - - -
Fr, 01.03. 19:00 1200 m 1/8 1/8 - - -
Fr, 01.03. 13:00 270 m 8/8 8/8 - - -
Fr, 01.03. 7:00 270 m 7/8 7/8 - - -
Fr, 01.03. 1:00 3000 m 7/8 7/8 - - -
Ortszeit Bedeckungsgrad in Achtel und Wolkenuntergrenze
Sa, 02.03. 21:00 2(4500m)
Sa, 02.03. 20:50 2(4500m)
Sa, 02.03. 20:40 3
Sa, 02.03. 20:30 keine Wolken
Sa, 02.03. 20:20 keine Wolken
Sa, 02.03. 20:10 keine Wolken
Sa, 02.03. 20:00 1(5100m) 3(7500m)
Sa, 02.03. 19:30 6(7500m) 7(8400m) 7(9000m)
Sa, 02.03. 19:00 5(7200m) 8(7800m)
Sa, 02.03. 18:30 7(3000m) 8(6900m) 8(8100m)
Sa, 02.03. 18:00 5(3000m) 8(7500m) 8(9000m)
Ortszeit Luftdruck NN (hPa) Tendenz (hPa in 3 Std.)
Sa, 02.03. 19:00 1002 - 0,3
Sa, 02.03. 13:00 1004 - 2,0
Sa, 02.03. 7:00 1008 + 0,2
Sa, 02.03. 1:00 1008 - 1,2
Fr, 01.03. 19:00 1009 - 0,2
Fr, 01.03. 13:00 1010 - 0,4
Fr, 01.03. 7:00 1009 + 1,1
Fr, 01.03. 1:00 1010 - 0,8
Ortszeit Luftdruck NN (hPa) Tendenz (hPa in 3 Std.)
Sa, 02.03. 21:00 1003 - 0,4
Sa, 02.03. 20:50 1003 keine Meldung
Sa, 02.03. 20:40 1003 keine Meldung
Sa, 02.03. 20:30 1003 0,0
Sa, 02.03. 20:20 1003 keine Meldung
Sa, 02.03. 20:10 1003 keine Meldung
Sa, 02.03. 20:00 1003 0,0
Sa, 02.03. 19:30 1002 - 0,1
Sa, 02.03. 19:00 1002 - 0,3
Sa, 02.03. 18:30 1002 - 0,7
Sa, 02.03. 18:00 1001 - 1,0
Ortszeit Schneehöhe (cm)
Sa, 02.03. 19:00 0
Sa, 02.03. 13:00 0
Sa, 02.03. 7:00 0
Sa, 02.03. 1:00 0
Fr, 01.03. 19:00 0
Fr, 01.03. 13:00 0
Fr, 01.03. 7:00 0
Fr, 01.03. 1:00 0
Ortszeit Schneehöhe (cm)
Sa, 02.03. 21:00 0
Sa, 02.03. 20:50 0
Sa, 02.03. 20:40 -
Sa, 02.03. 20:30 0
Sa, 02.03. 20:20 0
Sa, 02.03. 20:10 -
Sa, 02.03. 20:00 0
Sa, 02.03. 19:30 0
Sa, 02.03. 19:00 0
Sa, 02.03. 18:30 0
Sa, 02.03. 18:00 0
Link zu dieser Seite / Seite empfehlen

Das Wetter in ...